Back to catalog

FENGYUN 1C DEB

AlivePO
NORAD 32230·DEBRIS·🇨🇳 China

Launched May 10, 1999 from Taiyuan Satellite Launch Center

Loading…

Next Passes (next 24 hours)

TLE

FreshSource: Space-Track

Epoch: Sep 14, 2026, 10:39 UTC

1 32230U 99025CWC 26257.44389640  .00006427  00000-0  12621-2 0  9998
2 32230  98.8889  71.3168 0045962 324.9882  64.3679 14.62384891646928

Track FENGYUN 1C DEB in real time with AllMySat

Download on the App Store